Weather in Bellinzona

Switzerland     46°11′36″N   9°01′10″E
temp.,
°C
wind,
m/s
gust,
m/s
humid.,
%
clouds,
%
prec.,
mm/h
press.,
hPa
HPBL,
m
19 september, sun
sun1923:00+10ne229191 2.2 101423
02:00+10nne2292100 4.2 101326
05:00+10ne219698 0.5 101220
08:00+11nw12100100 15.3 101286
11:00+11nne2398100 5.9 1010118
14:00+11e1298100 19.0 101092
17:00+7n4696100 19.4 1013270
20:00+6n3595100 24.5 1014228
20 september, mon
mon2023:00+6n359492 0.6 1015139
02:00+5n469336 0.6 1016161
05:00+5nne459490 0.0 1015132
08:00+6nne3591100 0.0 1016150
11:00+12nne3462100 0.0 1016872
14:00+14nne3355100 0.0 10161266
17:00+12nne3365100 0.0 1017709
20:00+8nne34808 0.0 101963
21 september, tue
tue2123:00+6nne33806 0.0 102257
02:00+6nne33825 0.0 102345
05:00+6nne32765 0.0 102336
08:00+6nne33734 0.0 102449
11:00+14ssw21502 0.0 1022797
14:00+16ssw32487 0.0 10221369
17:00+15sw215722 0.0 1022767
20:00+9n11901 0.0 102410
22 september, wed
wed2223:00+8nne32805 0.0 102633
02:00+7nne22790 0.0 102628
05:00+7nne32721 0.0 102431
08:00+7nne22675 0.0 102435
11:00+15sw124597 0.0 1021649
14:00+17ssw324650 0.0 10191079
17:00+16ssw22629 0.0 1018641
20:00+9n119434 0.0 102010
23 september, thu
thu2323:00+8ne119376 0.0 102114
02:00+10nne009397 0.1 102030
05:00+10w0197100 0.2 101971
08:00+10wsw119769 0.3 101989
11:00+12sw218481 0.1 1018557
14:00+15ssw326971 0.2 1017874
17:00+15ssw216963 0.0 1016755
20:00+9w009527 0.0 101710